Year,Month,Day,Hour,Minute,Value (Times are PST for temperature in C)
2021,06,26,00,00,19.90
2021,06,26,00,01,19.90
2021,06,26,00,02,19.90
2021,06,26,00,03,19.80
2021,06,26,00,04,19.80
2021,06,26,00,05,19.80
2021,06,26,00,06,19.80
2021,06,26,00,07,19.80
2021,06,26,00,08,19.80
2021,06,26,00,09,19.80
2021,06,26,00,10,19.80
2021,06,26,00,11,19.80
2021,06,26,00,12,19.80
2021,06,26,00,13,19.70
2021,06,26,00,14,19.70
2021,06,26,00,15,19.70
2021,06,26,00,16,19.70
2021,06,26,00,17,19.70
2021,06,26,00,18,19.70
2021,06,26,00,19,19.70
2021,06,26,00,20,19.70
2021,06,26,00,21,19.70
2021,06,26,00,22,19.70
2021,06,26,00,23,19.70
2021,06,26,00,24,19.70
2021,06,26,00,25,19.70
2021,06,26,00,26,19.60
2021,06,26,00,27,19.60
2021,06,26,00,28,19.60
2021,06,26,00,29,19.60
2021,06,26,00,30,19.60
2021,06,26,00,31,19.60
2021,06,26,00,32,19.60
2021,06,26,00,33,19.60
2021,06,26,00,34,19.60
2021,06,26,00,35,19.50
2021,06,26,00,36,19.50
2021,06,26,00,37,19.50
2021,06,26,00,38,19.50
2021,06,26,00,39,19.50
2021,06,26,00,40,19.50
2021,06,26,00,41,19.50
2021,06,26,00,42,19.40
2021,06,26,00,43,19.40
2021,06,26,00,44,19.40
2021,06,26,00,45,19.40
2021,06,26,00,46,19.40
2021,06,26,00,47,19.40
2021,06,26,00,48,19.40
2021,06,26,00,49,19.40
2021,06,26,00,50,19.40
2021,06,26,00,51,19.40
2021,06,26,00,52,19.40
2021,06,26,00,53,19.30
2021,06,26,00,54,19.30
2021,06,26,00,55,19.30
2021,06,26,00,56,19.30
2021,06,26,00,57,19.30
2021,06,26,00,58,19.30
2021,06,26,00,59,19.30
2021,06,26,01,00,19.30
2021,06,26,01,01,19.30
2021,06,26,01,02,19.30
2021,06,26,01,03,19.30
2021,06,26,01,04,19.30
2021,06,26,01,05,19.30
2021,06,26,01,06,19.30
2021,06,26,01,07,19.30
2021,06,26,01,08,19.20
2021,06,26,01,09,19.20
2021,06,26,01,10,19.20
2021,06,26,01,11,19.20
2021,06,26,01,12,19.20
2021,06,26,01,13,19.20
2021,06,26,01,14,19.20
2021,06,26,01,15,19.20
2021,06,26,01,16,19.20
2021,06,26,01,17,19.20
2021,06,26,01,18,19.20
2021,06,26,01,19,19.20
2021,06,26,01,20,19.20
2021,06,26,01,21,19.10
2021,06,26,01,22,19.10
2021,06,26,01,23,19.10
2021,06,26,01,24,19.10
2021,06,26,01,25,19.10
2021,06,26,01,26,19.10
2021,06,26,01,27,19.10
2021,06,26,01,28,19.10
2021,06,26,01,29,19.10
2021,06,26,01,30,19.10
2021,06,26,01,31,19.10
2021,06,26,01,32,19.00
2021,06,26,01,33,19.00
2021,06,26,01,34,19.00
2021,06,26,01,35,19.00
2021,06,26,01,36,19.00
2021,06,26,01,37,19.00
2021,06,26,01,38,19.00
2021,06,26,01,39,19.00
2021,06,26,01,40,19.00
2021,06,26,01,41,19.00
2021,06,26,01,42,19.00
2021,06,26,01,43,19.00
2021,06,26,01,44,19.00
2021,06,26,01,45,19.00
2021,06,26,01,46,19.00
2021,06,26,01,47,19.00
2021,06,26,01,48,19.00
2021,06,26,01,49,19.00
2021,06,26,01,50,19.00
2021,06,26,01,51,18.90
2021,06,26,01,52,18.90
2021,06,26,01,53,18.90
2021,06,26,01,54,18.90
2021,06,26,01,55,18.90
2021,06,26,01,56,18.90
2021,06,26,01,57,18.90
2021,06,26,01,58,18.90
2021,06,26,01,59,18.90
2021,06,26,02,00,18.90
2021,06,26,02,01,18.90
2021,06,26,02,02,18.90
2021,06,26,02,03,18.90
2021,06,26,02,04,18.80
2021,06,26,02,05,18.80
2021,06,26,02,06,18.80
2021,06,26,02,07,18.80
2021,06,26,02,08,18.80
2021,06,26,02,09,18.80
2021,06,26,02,10,18.80
2021,06,26,02,11,18.80
2021,06,26,02,12,18.80
2021,06,26,02,13,18.80
2021,06,26,02,14,18.80
2021,06,26,02,15,18.80
2021,06,26,02,16,18.80
2021,06,26,02,17,18.80
2021,06,26,02,18,18.80
2021,06,26,02,19,18.80
2021,06,26,02,20,18.80
2021,06,26,02,21,18.80
2021,06,26,02,22,18.80
2021,06,26,02,23,18.80
2021,06,26,02,24,18.80
2021,06,26,02,25,18.70
2021,06,26,02,26,18.70
2021,06,26,02,27,18.70
2021,06,26,02,28,18.70
2021,06,26,02,29,18.70
2021,06,26,02,30,18.70
2021,06,26,02,31,18.70
2021,06,26,02,32,18.60
2021,06,26,02,33,18.60
2021,06,26,02,34,18.60
2021,06,26,02,35,18.60
2021,06,26,02,36,18.60
2021,06,26,02,37,18.60
2021,06,26,02,38,18.60
2021,06,26,02,39,18.60
2021,06,26,02,40,18.50
2021,06,26,02,41,18.50
2021,06,26,02,42,18.50
2021,06,26,02,43,18.50
2021,06,26,02,44,18.50
2021,06,26,02,45,18.50
2021,06,26,02,46,18.40
2021,06,26,02,47,18.40
2021,06,26,02,48,18.40
2021,06,26,02,49,18.40
2021,06,26,02,50,18.40
2021,06,26,02,51,18.40
2021,06,26,02,52,18.40
2021,06,26,02,53,18.40
2021,06,26,02,54,18.40
2021,06,26,02,55,18.40
2021,06,26,02,56,18.40
2021,06,26,02,57,18.40
2021,06,26,02,58,18.40
2021,06,26,02,59,18.40
2021,06,26,03,00,18.40
2021,06,26,03,01,18.30
2021,06,26,03,02,18.30
2021,06,26,03,03,18.30
2021,06,26,03,04,18.30
2021,06,26,03,05,18.30
2021,06,26,03,06,18.30
2021,06,26,03,07,18.30
2021,06,26,03,08,18.30
2021,06,26,03,09,18.30
2021,06,26,03,10,18.30
2021,06,26,03,11,18.30
2021,06,26,03,12,18.30
2021,06,26,03,13,18.30
2021,06,26,03,14,18.30
2021,06,26,03,15,18.30
2021,06,26,03,16,18.30
2021,06,26,03,17,18.30
2021,06,26,03,18,18.30
2021,06,26,03,19,18.30
2021,06,26,03,20,18.30
2021,06,26,03,21,18.30
2021,06,26,03,22,18.30
2021,06,26,03,23,18.20
2021,06,26,03,24,18.20
2021,06,26,03,25,18.20
2021,06,26,03,26,18.20
2021,06,26,03,27,18.20
2021,06,26,03,28,18.20
2021,06,26,03,29,18.20
2021,06,26,03,30,18.20
2021,06,26,03,31,18.20
2021,06,26,03,32,18.20
2021,06,26,03,33,18.20
2021,06,26,03,34,18.20
2021,06,26,03,35,18.20
2021,06,26,03,36,18.20
2021,06,26,03,37,18.20
2021,06,26,03,38,18.20
2021,06,26,03,39,18.20
2021,06,26,03,40,18.20
2021,06,26,03,41,18.20
2021,06,26,03,42,18.20
2021,06,26,03,43,18.20
2021,06,26,03,44,18.10
2021,06,26,03,45,18.20
2021,06,26,03,46,18.20
2021,06,26,03,47,18.20
2021,06,26,03,48,18.10
2021,06,26,03,49,18.10
2021,06,26,03,50,18.10
2021,06,26,03,51,18.10
2021,06,26,03,52,18.10
2021,06,26,03,53,18.10
2021,06,26,03,54,18.10
2021,06,26,03,55,18.10
2021,06,26,03,56,18.10
2021,06,26,03,57,18.10
2021,06,26,03,58,18.10
2021,06,26,03,59,18.10
2021,06,26,04,00,18.10
2021,06,26,04,01,18.10
2021,06,26,04,02,18.10
2021,06,26,04,03,18.10
2021,06,26,04,04,18.10
2021,06,26,04,05,18.10
2021,06,26,04,06,18.10
2021,06,26,04,07,18.10
2021,06,26,04,08,18.10
2021,06,26,04,09,18.10
2021,06,26,04,10,18.10
2021,06,26,04,11,18.10
2021,06,26,04,12,18.10
2021,06,26,04,13,18.00
2021,06,26,04,14,18.00
2021,06,26,04,15,18.00
2021,06,26,04,16,18.00
2021,06,26,04,17,18.00
2021,06,26,04,18,18.00
2021,06,26,04,19,18.00
2021,06,26,04,20,18.00
2021,06,26,04,21,18.10
2021,06,26,04,22,18.10
2021,06,26,04,23,18.10
2021,06,26,04,24,18.10
2021,06,26,04,25,18.10
2021,06,26,04,26,18.00
2021,06,26,04,27,18.10
2021,06,26,04,28,18.00
2021,06,26,04,29,18.00
2021,06,26,04,30,18.00
2021,06,26,04,31,18.00
2021,06,26,04,32,18.10
2021,06,26,04,33,18.10
2021,06,26,04,34,18.10
2021,06,26,04,35,18.10
2021,06,26,04,36,18.10
2021,06,26,04,37,18.10
2021,06,26,04,38,18.10
2021,06,26,04,39,18.10
2021,06,26,04,40,18.10
2021,06,26,04,41,18.10
2021,06,26,04,42,18.10
2021,06,26,04,43,18.10
2021,06,26,04,44,18.10
2021,06,26,04,45,18.10
2021,06,26,04,46,18.10
2021,06,26,04,47,18.10
2021,06,26,04,48,18.10
2021,06,26,04,49,18.10
2021,06,26,04,50,18.10
2021,06,26,04,51,18.10
2021,06,26,04,52,18.10
2021,06,26,04,53,18.00
2021,06,26,04,54,18.00
2021,06,26,04,55,18.00
2021,06,26,04,56,18.00
2021,06,26,04,57,18.00
2021,06,26,04,58,18.00
2021,06,26,04,59,18.00
2021,06,26,05,00,18.00
2021,06,26,05,01,18.00
2021,06,26,05,02,18.00
2021,06,26,05,03,18.00
2021,06,26,05,04,18.00
2021,06,26,05,05,18.00
2021,06,26,05,06,17.90
2021,06,26,05,07,17.90
2021,06,26,05,08,17.90
2021,06,26,05,09,17.90
2021,06,26,05,10,17.90
2021,06,26,05,11,17.90
2021,06,26,05,12,17.90
2021,06,26,05,13,17.80
2021,06,26,05,14,17.80
2021,06,26,05,15,17.80
2021,06,26,05,16,17.80
2021,06,26,05,17,17.80
2021,06,26,05,18,17.80
2021,06,26,05,19,17.80
2021,06,26,05,20,17.70
2021,06,26,05,21,17.70
2021,06,26,05,22,17.70
2021,06,26,05,23,17.70
2021,06,26,05,24,17.70
2021,06,26,05,25,17.70
2021,06,26,05,26,17.70
2021,06,26,05,27,17.70
2021,06,26,05,28,17.60
2021,06,26,05,29,17.60
2021,06,26,05,30,17.60
2021,06,26,05,31,17.60
2021,06,26,05,32,17.60
2021,06,26,05,33,17.60
2021,06,26,05,34,17.60
2021,06,26,05,35,17.60
2021,06,26,05,36,17.60
2021,06,26,05,37,17.60
2021,06,26,05,38,17.60
2021,06,26,05,39,17.60
2021,06,26,05,40,17.60
2021,06,26,05,41,17.70
2021,06,26,05,42,17.70
2021,06,26,05,43,17.70
2021,06,26,05,44,17.70
2021,06,26,05,45,17.70
2021,06,26,05,46,17.70
2021,06,26,05,47,17.70
2021,06,26,05,48,17.70
2021,06,26,05,49,17.70
2021,06,26,05,50,17.70
2021,06,26,05,51,17.80
2021,06,26,05,52,17.80
2021,06,26,05,53,17.80
2021,06,26,05,54,17.80
2021,06,26,05,55,17.80
2021,06,26,05,56,17.80
2021,06,26,05,57,17.80
2021,06,26,05,58,17.80
2021,06,26,05,59,17.80
2021,06,26,06,00,17.80
2021,06,26,06,01,17.80
2021,06,26,06,02,17.80
2021,06,26,06,03,17.80
2021,06,26,06,04,17.80
2021,06,26,06,05,17.80
2021,06,26,06,06,17.80
2021,06,26,06,07,17.80
2021,06,26,06,08,17.90
2021,06,26,06,09,17.90
2021,06,26,06,10,17.90
2021,06,26,06,11,17.90
2021,06,26,06,12,17.90
2021,06,26,06,13,18.00
2021,06,26,06,14,18.00
2021,06,26,06,15,18.00
2021,06,26,06,16,18.00
2021,06,26,06,17,18.10
2021,06,26,06,18,18.10
2021,06,26,06,19,18.10
2021,06,26,06,20,18.10
2021,06,26,06,21,18.10
2021,06,26,06,22,18.10
2021,06,26,06,23,18.20
2021,06,26,06,24,18.20
2021,06,26,06,25,18.20
2021,06,26,06,26,18.20
2021,06,26,06,27,18.20
2021,06,26,06,28,18.20
2021,06,26,06,29,18.20
2021,06,26,06,30,18.30
2021,06,26,06,31,18.30
2021,06,26,06,32,18.30
2021,06,26,06,33,18.30
2021,06,26,06,34,18.30
2021,06,26,06,35,18.30
2021,06,26,06,36,18.40
2021,06,26,06,37,18.40
2021,06,26,06,38,18.40
2021,06,26,06,39,18.40
2021,06,26,06,40,18.40
2021,06,26,06,41,18.40
2021,06,26,06,42,18.40
2021,06,26,06,43,18.40
2021,06,26,06,44,18.40
2021,06,26,06,45,18.50
2021,06,26,06,46,18.50
2021,06,26,06,47,18.60
2021,06,26,06,48,18.60
2021,06,26,06,49,18.60
2021,06,26,06,50,18.70
2021,06,26,06,51,18.70
2021,06,26,06,52,18.80
2021,06,26,06,53,18.80
2021,06,26,06,54,18.90
2021,06,26,06,55,18.90
2021,06,26,06,56,19.00
2021,06,26,06,57,19.10
2021,06,26,06,58,19.20
2021,06,26,06,59,19.30
2021,06,26,07,00,19.40
2021,06,26,07,01,19.50
2021,06,26,07,02,19.60
2021,06,26,07,03,19.80
2021,06,26,07,04,20.00
2021,06,26,07,05,20.10
2021,06,26,07,06,20.20
2021,06,26,07,07,20.40
2021,06,26,07,08,20.50
2021,06,26,07,09,20.70
2021,06,26,07,10,20.80
2021,06,26,07,11,20.90
2021,06,26,07,12,21.10
2021,06,26,07,13,21.30
2021,06,26,07,14,21.40
2021,06,26,07,15,21.60
2021,06,26,07,16,21.70
2021,06,26,07,17,21.90
2021,06,26,07,18,22.00
2021,06,26,07,19,22.20
2021,06,26,07,20,22.30
2021,06,26,07,21,22.40
2021,06,26,07,22,22.50
2021,06,26,07,23,22.60
2021,06,26,07,24,22.70
2021,06,26,07,25,22.80
2021,06,26,07,26,23.00
2021,06,26,07,27,23.20
2021,06,26,07,28,23.40
2021,06,26,07,29,23.60
2021,06,26,07,30,23.80
2021,06,26,07,31,24.00
2021,06,26,07,32,24.20
2021,06,26,07,33,24.40
2021,06,26,07,34,24.60
2021,06,26,07,35,24.80
2021,06,26,07,36,25.00
2021,06,26,07,37,25.10
2021,06,26,07,38,25.30
2021,06,26,07,39,25.40
2021,06,26,07,40,25.60
2021,06,26,07,41,25.70
2021,06,26,07,42,25.90
2021,06,26,07,43,26.00
2021,06,26,07,44,26.20
2021,06,26,07,45,26.30
2021,06,26,07,46,26.40
2021,06,26,07,47,26.40
2021,06,26,07,48,26.50
2021,06,26,07,49,26.60
2021,06,26,07,50,26.70
2021,06,26,07,51,26.80
2021,06,26,07,52,26.80
2021,06,26,07,53,26.90
2021,06,26,07,54,27.00
2021,06,26,07,55,27.00
2021,06,26,07,56,27.10
2021,06,26,07,57,27.10
2021,06,26,07,58,27.20
2021,06,26,07,59,27.30
2021,06,26,08,00,27.30
2021,06,26,08,01,27.30
2021,06,26,08,02,27.40
2021,06,26,08,03,27.40
2021,06,26,08,04,27.50
2021,06,26,08,05,27.50
2021,06,26,08,06,27.60
2021,06,26,08,07,27.60
2021,06,26,08,08,27.60
2021,06,26,08,09,27.70
2021,06,26,08,10,27.70
2021,06,26,08,11,27.70
2021,06,26,08,12,27.80
2021,06,26,08,13,27.80
2021,06,26,08,14,27.80
2021,06,26,08,15,27.80
2021,06,26,08,16,27.90
2021,06,26,08,17,27.90
2021,06,26,08,18,27.90
2021,06,26,08,19,27.90
2021,06,26,08,20,28.00
2021,06,26,08,21,28.00
2021,06,26,08,22,28.10
2021,06,26,08,23,28.10
2021,06,26,08,24,28.20
2021,06,26,08,25,28.20
2021,06,26,08,26,28.20
2021,06,26,08,27,28.20
2021,06,26,08,28,28.20
2021,06,26,08,29,28.30
2021,06,26,08,30,28.30
2021,06,26,08,31,28.30
2021,06,26,08,32,28.30
2021,06,26,08,33,28.30
2021,06,26,08,34,28.30
2021,06,26,08,35,28.30
2021,06,26,08,36,28.40
2021,06,26,08,37,28.40
2021,06,26,08,38,28.40
2021,06,26,08,39,28.40
2021,06,26,08,40,28.50
2021,06,26,08,41,28.50
2021,06,26,08,42,28.50
2021,06,26,08,43,28.60
2021,06,26,08,44,28.60
2021,06,26,08,45,28.60
2021,06,26,08,46,28.60
2021,06,26,08,47,28.60
2021,06,26,08,48,28.60
2021,06,26,08,49,28.50
2021,06,26,08,50,28.50
2021,06,26,08,51,28.50
2021,06,26,08,52,28.50
2021,06,26,08,53,28.50
2021,06,26,08,54,28.50
2021,06,26,08,55,28.60
2021,06,26,08,56,28.60
2021,06,26,08,57,28.60
2021,06,26,08,58,28.70
2021,06,26,08,59,28.60
2021,06,26,09,00,28.60
2021,06,26,09,01,28.60
2021,06,26,09,02,28.60
2021,06,26,09,03,28.60
2021,06,26,09,04,28.60
2021,06,26,09,05,28.60
2021,06,26,09,06,28.60
2021,06,26,09,07,28.70
2021,06,26,09,08,28.70
2021,06,26,09,09,28.70
2021,06,26,09,10,28.70
2021,06,26,09,11,28.80
2021,06,26,09,12,28.80
2021,06,26,09,13,28.80
2021,06,26,09,14,28.80
2021,06,26,09,15,28.80
2021,06,26,09,16,28.80
2021,06,26,09,17,28.80
2021,06,26,09,18,28.80
2021,06,26,09,19,28.80
2021,06,26,09,20,28.80
2021,06,26,09,21,28.80
2021,06,26,09,22,28.80
2021,06,26,09,23,28.80
2021,06,26,09,24,28.80
2021,06,26,09,25,28.80
2021,06,26,09,26,28.90
2021,06,26,09,27,28.90
2021,06,26,09,28,29.00
2021,06,26,09,29,29.10
2021,06,26,09,30,29.10
2021,06,26,09,31,29.30
2021,06,26,09,32,29.40
2021,06,26,09,33,29.50
2021,06,26,09,34,29.50
2021,06,26,09,35,29.50
2021,06,26,09,36,29.50
2021,06,26,09,37,29.40
2021,06,26,09,38,29.40
2021,06,26,09,39,29.30
2021,06,26,09,40,29.30
2021,06,26,09,41,29.30
2021,06,26,09,42,29.30
2021,06,26,09,43,29.30
2021,06,26,09,44,29.40
2021,06,26,09,45,29.40
2021,06,26,09,46,29.50
2021,06,26,09,47,29.60
2021,06,26,09,48,29.70
2021,06,26,09,49,29.60
2021,06,26,09,50,29.70
2021,06,26,09,51,29.70
2021,06,26,09,52,29.70
2021,06,26,09,53,29.80
2021,06,26,09,54,29.80
2021,06,26,09,55,29.90
2021,06,26,09,56,30.00
2021,06,26,09,57,30.10
2021,06,26,09,58,30.10
2021,06,26,09,59,30.20
2021,06,26,10,00,30.20
2021,06,26,10,01,30.20
2021,06,26,10,02,30.20
2021,06,26,10,03,30.20
2021,06,26,10,04,30.20
2021,06,26,10,05,30.30
2021,06,26,10,06,30.30
2021,06,26,10,07,30.40
2021,06,26,10,08,30.40
2021,06,26,10,09,30.30
2021,06,26,10,10,30.30
2021,06,26,10,11,30.30
2021,06,26,10,12,30.40
2021,06,26,10,13,30.40
2021,06,26,10,14,30.40
2021,06,26,10,15,30.50
2021,06,26,10,16,30.50
2021,06,26,10,17,30.50
2021,06,26,10,18,30.40
2021,06,26,10,19,30.40
2021,06,26,10,20,30.40
2021,06,26,10,21,30.50
2021,06,26,10,22,30.50
2021,06,26,10,23,30.60
2021,06,26,10,24,30.70
2021,06,26,10,25,30.80
2021,06,26,10,26,30.90
2021,06,26,10,27,31.00
2021,06,26,10,28,31.10
2021,06,26,10,29,31.20
2021,06,26,10,30,31.20
2021,06,26,10,31,31.20
2021,06,26,10,32,31.30
2021,06,26,10,33,31.30
2021,06,26,10,34,31.40
2021,06,26,10,35,31.40
2021,06,26,10,36,31.50
2021,06,26,10,37,31.50
2021,06,26,10,38,31.50
2021,06,26,10,39,31.50
2021,06,26,10,40,31.40
2021,06,26,10,41,31.40
2021,06,26,10,42,31.30
2021,06,26,10,43,31.30
2021,06,26,10,44,31.20
2021,06,26,10,45,31.10
2021,06,26,10,46,30.90
2021,06,26,10,47,30.90
2021,06,26,10,48,30.80
2021,06,26,10,49,30.80
2021,06,26,10,50,30.70
2021,06,26,10,51,30.60
2021,06,26,10,52,30.60
2021,06,26,10,53,30.60
2021,06,26,10,54,30.60
2021,06,26,10,55,30.60
2021,06,26,10,56,30.70
2021,06,26,10,57,30.70
2021,06,26,10,58,30.80
2021,06,26,10,59,30.80
2021,06,26,11,00,30.90
2021,06,26,11,01,30.90
2021,06,26,11,02,30.90
2021,06,26,11,03,31.00
2021,06,26,11,04,31.00
2021,06,26,11,05,30.90
2021,06,26,11,06,30.90
2021,06,26,11,07,30.80
2021,06,26,11,08,30.80
2021,06,26,11,09,30.80
2021,06,26,11,10,30.90
2021,06,26,11,11,30.90
2021,06,26,11,12,31.00
2021,06,26,11,13,31.10
2021,06,26,11,14,31.10
2021,06,26,11,15,31.20
2021,06,26,11,16,31.20
2021,06,26,11,17,31.20
2021,06,26,11,18,31.20
2021,06,26,11,19,31.30
2021,06,26,11,20,31.30
2021,06,26,11,21,31.40
2021,06,26,11,22,31.50
2021,06,26,11,23,31.50
2021,06,26,11,24,31.50
2021,06,26,11,25,31.50
2021,06,26,11,26,31.40
2021,06,26,11,27,31.40
2021,06,26,11,28,31.40
2021,06,26,11,29,31.40
2021,06,26,11,30,31.40
2021,06,26,11,31,31.40
2021,06,26,11,32,31.50
2021,06,26,11,33,31.50
2021,06,26,11,34,31.60
2021,06,26,11,35,31.60
2021,06,26,11,36,31.70
2021,06,26,11,37,31.70
2021,06,26,11,38,31.80
2021,06,26,11,39,31.80
2021,06,26,11,40,31.90
2021,06,26,11,41,31.80
2021,06,26,11,42,31.80
2021,06,26,11,43,31.70
2021,06,26,11,44,31.60
2021,06,26,11,45,31.70
2021,06,26,11,46,31.70
2021,06,26,11,47,31.80
2021,06,26,11,48,31.80
2021,06,26,11,49,31.80
2021,06,26,11,50,31.70
2021,06,26,11,51,31.60
2021,06,26,11,52,31.40
2021,06,26,11,53,31.40
2021,06,26,11,54,31.30
2021,06,26,11,55,31.30
2021,06,26,11,56,31.30
2021,06,26,11,57,31.30
2021,06,26,11,58,31.40
2021,06,26,11,59,31.40
2021,06,26,12,00,31.50
2021,06,26,12,01,31.50
2021,06,26,12,02,31.60
2021,06,26,12,03,31.70
2021,06,26,12,04,31.80
2021,06,26,12,05,31.80
2021,06,26,12,06,31.90
2021,06,26,12,07,32.00
2021,06,26,12,08,32.00
2021,06,26,12,09,32.10
2021,06,26,12,10,32.10
2021,06,26,12,11,32.10
2021,06,26,12,12,32.10
2021,06,26,12,13,32.20
2021,06,26,12,14,32.10
2021,06,26,12,15,32.10
2021,06,26,12,16,32.10
2021,06,26,12,17,32.10
2021,06,26,12,18,32.10
2021,06,26,12,19,32.10
2021,06,26,12,20,32.10
2021,06,26,12,21,32.10
2021,06,26,12,22,32.10
2021,06,26,12,23,32.10
2021,06,26,12,24,32.10
2021,06,26,12,25,32.10
2021,06,26,12,26,32.00
2021,06,26,12,27,31.90
2021,06,26,12,28,31.80
2021,06,26,12,29,31.70
2021,06,26,12,30,31.70
2021,06,26,12,31,31.70
2021,06,26,12,32,31.70
2021,06,26,12,33,31.70
2021,06,26,12,34,31.80
2021,06,26,12,35,31.80
2021,06,26,12,36,31.90
2021,06,26,12,37,31.90
2021,06,26,12,38,32.00
2021,06,26,12,39,32.00
2021,06,26,12,40,31.90
2021,06,26,12,41,31.90
2021,06,26,12,42,31.90
2021,06,26,12,43,31.90
2021,06,26,12,44,32.00
2021,06,26,12,45,32.10
2021,06,26,12,46,32.10
2021,06,26,12,47,32.20
2021,06,26,12,48,32.20
2021,06,26,12,49,32.30
2021,06,26,12,50,32.40
2021,06,26,12,51,32.50
2021,06,26,12,52,32.50
2021,06,26,12,53,32.40
2021,06,26,12,54,32.40
2021,06,26,12,55,32.40
2021,06,26,12,56,32.40
2021,06,26,12,57,32.50
2021,06,26,12,58,32.50
2021,06,26,12,59,32.50
2021,06,26,13,00,32.60
2021,06,26,13,01,32.60
2021,06,26,13,02,32.70
2021,06,26,13,03,32.70
2021,06,26,13,04,32.80
2021,06,26,13,05,32.80
2021,06,26,13,06,32.80
2021,06,26,13,07,32.90
2021,06,26,13,08,32.90
2021,06,26,13,09,32.90
2021,06,26,13,10,32.90
2021,06,26,13,11,32.90
2021,06,26,13,12,32.90
2021,06,26,13,13,32.90
2021,06,26,13,14,32.80
2021,06,26,13,15,32.80
2021,06,26,13,16,32.80
2021,06,26,13,17,32.80
2021,06,26,13,18,32.80
2021,06,26,13,19,32.80
2021,06,26,13,20,32.90
2021,06,26,13,21,32.90
2021,06,26,13,22,33.00
2021,06,26,13,23,33.00
2021,06,26,13,24,33.10
2021,06,26,13,25,33.10
2021,06,26,13,26,33.10
2021,06,26,13,27,33.20
2021,06,26,13,28,33.20
2021,06,26,13,29,33.20
2021,06,26,13,30,33.10
2021,06,26,13,31,33.20
2021,06,26,13,32,33.20
2021,06,26,13,33,33.20
2021,06,26,13,34,33.30
2021,06,26,13,35,33.50
2021,06,26,13,36,33.50
2021,06,26,13,37,33.60
2021,06,26,13,38,33.70
2021,06,26,13,39,33.70
2021,06,26,13,40,33.80
2021,06,26,13,41,33.80
2021,06,26,13,42,33.80
2021,06,26,13,43,33.70
2021,06,26,13,44,33.70
2021,06,26,13,45,33.70
2021,06,26,13,46,33.70
2021,06,26,13,47,33.70
2021,06,26,13,48,33.70
2021,06,26,13,49,33.70
2021,06,26,13,50,33.80
2021,06,26,13,51,33.80
2021,06,26,13,52,33.80
2021,06,26,13,53,33.80
2021,06,26,13,54,33.80
2021,06,26,13,55,33.80
2021,06,26,13,56,33.90
2021,06,26,13,57,33.90
2021,06,26,13,58,33.90
2021,06,26,13,59,33.80
2021,06,26,14,00,33.80
2021,06,26,14,01,33.80
2021,06,26,14,02,33.80
2021,06,26,14,03,33.70
2021,06,26,14,04,33.70
2021,06,26,14,05,33.70
2021,06,26,14,06,33.70
2021,06,26,14,07,33.60
2021,06,26,14,08,33.60
2021,06,26,14,09,33.50
2021,06,26,14,10,33.40
2021,06,26,14,11,33.40
2021,06,26,14,12,33.40
2021,06,26,14,13,33.40
2021,06,26,14,14,33.40
2021,06,26,14,15,33.40
2021,06,26,14,16,33.40
2021,06,26,14,17,33.50
2021,06,26,14,18,33.50
2021,06,26,14,19,33.50
2021,06,26,14,20,33.50
2021,06,26,14,21,33.60
2021,06,26,14,22,33.60
2021,06,26,14,23,33.60
2021,06,26,14,24,33.60
2021,06,26,14,25,33.70
2021,06,26,14,26,33.70
2021,06,26,14,27,33.80
2021,06,26,14,28,33.80
2021,06,26,14,29,33.80
2021,06,26,14,30,33.80
2021,06,26,14,31,33.80
2021,06,26,14,32,33.80
2021,06,26,14,33,33.80
2021,06,26,14,34,33.90
2021,06,26,14,35,33.90
2021,06,26,14,36,34.00
2021,06,26,14,37,34.10
2021,06,26,14,38,34.10
2021,06,26,14,39,34.20
2021,06,26,14,40,34.20
2021,06,26,14,41,34.30
2021,06,26,14,42,34.30
2021,06,26,14,43,34.30
2021,06,26,14,44,34.40
2021,06,26,14,45,34.40
2021,06,26,14,46,34.40
2021,06,26,14,47,34.50
2021,06,26,14,48,34.50
2021,06,26,14,49,34.50
2021,06,26,14,50,34.40
2021,06,26,14,51,34.40
2021,06,26,14,52,34.40
2021,06,26,14,53,34.40
2021,06,26,14,54,34.40
2021,06,26,14,55,34.40
2021,06,26,14,56,34.30
2021,06,26,14,57,34.20
2021,06,26,14,58,34.20
2021,06,26,14,59,34.20
2021,06,26,15,00,34.10
2021,06,26,15,01,34.10
2021,06,26,15,02,34.10
2021,06,26,15,03,34.20
2021,06,26,15,04,34.20
2021,06,26,15,05,34.30
2021,06,26,15,06,34.30
2021,06,26,15,07,34.30
2021,06,26,15,08,34.30
2021,06,26,15,09,34.40
2021,06,26,15,10,34.50
2021,06,26,15,11,34.60
2021,06,26,15,12,34.60
2021,06,26,15,13,34.60
2021,06,26,15,14,34.50
2021,06,26,15,15,34.50
2021,06,26,15,16,34.50
2021,06,26,15,17,34.60
2021,06,26,15,18,34.60
2021,06,26,15,19,34.60
2021,06,26,15,20,34.70
2021,06,26,15,21,34.70
2021,06,26,15,22,34.70
2021,06,26,15,23,34.70
2021,06,26,15,24,34.70
2021,06,26,15,25,34.70
2021,06,26,15,26,34.70
2021,06,26,15,27,34.60
2021,06,26,15,28,34.60
2021,06,26,15,29,34.60
2021,06,26,15,30,34.50
2021,06,26,15,31,34.50
2021,06,26,15,32,34.50
2021,06,26,15,33,34.60
2021,06,26,15,34,34.60
2021,06,26,15,35,34.70
2021,06,26,15,36,34.70
2021,06,26,15,37,34.70
2021,06,26,15,38,34.80
2021,06,26,15,39,34.80
2021,06,26,15,40,34.80
2021,06,26,15,41,34.80
2021,06,26,15,42,34.70
2021,06,26,15,43,34.70
2021,06,26,15,44,34.70
2021,06,26,15,45,34.70
2021,06,26,15,46,34.70
2021,06,26,15,47,34.70
2021,06,26,15,48,34.70
2021,06,26,15,49,34.70
2021,06,26,15,50,34.70
2021,06,26,15,51,34.70
2021,06,26,15,52,34.70
2021,06,26,15,53,34.70
2021,06,26,15,54,34.60
2021,06,26,15,55,34.60
2021,06,26,15,56,34.50
2021,06,26,15,57,34.50
2021,06,26,15,58,34.50
2021,06,26,15,59,34.50
2021,06,26,16,00,34.50
2021,06,26,16,01,34.50
2021,06,26,16,02,34.60
2021,06,26,16,03,34.60
2021,06,26,16,04,34.60
2021,06,26,16,05,34.70
2021,06,26,16,06,34.70
2021,06,26,16,07,34.80
2021,06,26,16,08,34.80
2021,06,26,16,09,34.90
2021,06,26,16,10,34.90
2021,06,26,16,11,34.90
2021,06,26,16,12,34.90
2021,06,26,16,13,34.90
2021,06,26,16,14,34.90
2021,06,26,16,15,34.90
2021,06,26,16,16,34.90
2021,06,26,16,17,34.90
2021,06,26,16,18,34.90
2021,06,26,16,19,34.90
2021,06,26,16,20,34.90
2021,06,26,16,21,34.90
2021,06,26,16,22,34.90
2021,06,26,16,23,34.90
2021,06,26,16,24,34.90
2021,06,26,16,25,34.90
2021,06,26,16,26,35.00
2021,06,26,16,27,35.00
2021,06,26,16,28,35.00
2021,06,26,16,29,35.00
2021,06,26,16,30,35.00
2021,06,26,16,31,35.00
2021,06,26,16,32,35.00
2021,06,26,16,33,35.00
2021,06,26,16,34,34.90
2021,06,26,16,35,34.90
2021,06,26,16,36,34.90
2021,06,26,16,37,34.90
2021,06,26,16,38,34.90
2021,06,26,16,39,34.90
2021,06,26,16,40,34.90
2021,06,26,16,41,34.90
2021,06,26,16,42,35.00
2021,06,26,16,43,35.00
2021,06,26,16,44,35.00
2021,06,26,16,45,35.10
2021,06,26,16,46,35.10
2021,06,26,16,47,35.10
2021,06,26,16,48,35.20
2021,06,26,16,49,35.20
2021,06,26,16,50,35.20
2021,06,26,16,51,35.20
2021,06,26,16,52,35.20
2021,06,26,16,53,35.20
2021,06,26,16,54,35.10
2021,06,26,16,55,35.10
2021,06,26,16,56,35.10
2021,06,26,16,57,35.10
2021,06,26,16,58,35.10
2021,06,26,16,59,35.10
2021,06,26,17,00,35.00
2021,06,26,17,01,35.00
2021,06,26,17,02,35.00
2021,06,26,17,03,35.00
2021,06,26,17,04,35.00
2021,06,26,17,05,34.90
2021,06,26,17,06,34.90
2021,06,26,17,07,34.90
2021,06,26,17,08,34.90
2021,06,26,17,09,34.90
2021,06,26,17,10,34.90
2021,06,26,17,11,35.00
2021,06,26,17,12,35.00
2021,06,26,17,13,35.10
2021,06,26,17,14,35.10
2021,06,26,17,15,35.10
2021,06,26,17,16,35.10
2021,06,26,17,17,35.10
2021,06,26,17,18,35.10
2021,06,26,17,19,35.20